Regional Weather Roundup
Issued by NWS Green Bay, WI

Home | Current Version | Previous Version | Text Only | Print | Product List | Glossary On
Versions: 1 2 3 4 5 6 7 8 9 10 11 12 13 14 15 16 17 18 19 20 21 22 23 24 25 26 27 28 29 30 31 32 33 34 35 36 37 38 39 40 41 42 43 44 45 46 47 48 49 50
000
ASUS43 KGRB 041712
RWRGRB

NORTH-CENTRAL AND NORTHEAST WISCONSIN REGIONAL WEATHER ROUNDUP
NATIONAL WEATHER SERVICE GREEN BAY WI
1200 PM CDT FRI SEP 04 2015

WIZ005-009-010>012-018-019-041800-
NORTH CENTRAL WISCONSIN

CITY           SKY/WX    TMP DP  RH WIND       PRES   REMARKS
IRONWOOD       SUNNY     79  64  61 S12       30.01S
MANITOWISH WTR SUNNY     77  65  65 SE8       30.08S
ARBOR VITAE    SUNNY     80  65  60 SE10G16   30.08S
EAGLE RIVER    SUNNY     78  59  50 SE9       30.08S
LAND O LAKES   SUNNY     79  58  49 E13       30.10R
RHINELANDER    SUNNY     79  63  57 SE12      30.08S
PHILLIPS       SUNNY     76  66  69 E7        30.05F
ANTIGO         SUNNY     77  65  67 E6        30.08S
TOMAHAWK       MOSUNNY   77  66  67 S3        30.07S
MERRILL        MOSUNNY   77  67  70 S6        30.07S
$$

WIZ013-073-041800-
NORTHEAST WISCONSIN

CITY           SKY/WX    TMP DP  RH WIND       PRES   REMARKS
IRON MOUNTAIN  SUNNY     77  62  59 SE5       30.06F
MARINETTE      CLOUDY    72  63  73 E7        30.05S
OCONTO         MOSUNNY   74  67  79 E6        30.04S
$$

WIZ017-030-035>037-045-041800-
CENTRAL WISCONSIN

CITY           SKY/WX    TMP DP  RH WIND       PRES   REMARKS
MEDFORD        MOSUNNY   73  66  79 SE8       30.07S
WAUSAU         MOSUNNY   74  65  73 S8        30.05F
MOSINEE        PTSUNNY   72  66  83 SE6       30.07F
MARSHFIELD     CLOUDY    70  63  78 SE9       30.07S
WISC RAPIDS    CLOUDY    70  63  78 E6        30.07S
STEVENS POINT  CLOUDY    68  64  87 E7        30.07S
WAUPACA        CLOUDY    71  69  93 CALM      30.06F
SHAWANO        NOT AVBL
CLINTONVILLE   MOSUNNY   73  66  78 S3        30.05S
WAUTOMA        CLOUDY    72  66  81 E5        30.06F
$$

WIZ038-039-048-051-041800-
FOX VALLEY

CITY           SKY/WX    TMP DP  RH WIND       PRES   REMARKS
NWS GREEN BAY  PTSUNNY   75  66  73 VRB5      30.05R
APPLETON       CLOUDY    72  64  78 VRB3      30.04F
OSHKOSH        CLOUDY    70  64  81 E3        30.05S
FOND DU LAC    CLOUDY    72  66  81 VRB3      30.05F
$$

WIZ022-050-052-041800-
EAST CENTRAL WISCONSIN

CITY           SKY/WX    TMP DP  RH WIND       PRES   REMARKS
EPHRAIM        PTSUNNY   74  66  75 E7        30.05S
STURGEON BAY   CLOUDY    72  64  78 E3        30.07S
MANITOWOC      CLOUDY    72  67  84 MISG      30.05S
SHEBOYGAN      CLOUDY    70  66  87 E5        30.05S
$$

LMZ563-521-522-541>543-041800-
LAKESHORE

STATION/POSITION TIME  TEMP    WIND        PRES    VSBY  WAVE
                       AIR SEA DIR/SP/G                  HT/PER
                 (UTC) (F)     (DEG/KT/KT) (MB)    (MI)  (FT/S)
SHEBOYGAN LKSHOR 1700   63     360/  5/  6 1017.7F
KEWAUNEE LKSHORE 1600   67      30/  3/  5 1016.4S
ALGOMA MARINA    1614             CALM       N/A
NORTHPORT PIER   1600   71      40/  2/  4 1017.3S
N MID LAKE BUOY  1650   68 66  130/  6/  8 1017.2R         2/ 3
S GREEN BAY BUOY 1700   68 67   10/  8/ 10 1018.8
SISTER BAY LKSHO 1611   78     140/  8/ 10   N/A
CHAMBERS ISLAND  1600   69      10/  8/  9 1017.6S
MENOMINEE LKSHOR 1600   67      10/  7/  8 1016.4R
$$


USA.gov is the U.S. government's official web portal to all federal, state and local government web resources and services.